When you browse on this site, cookies collect data to enhance your experience and personalize the content and advertising you see.
Visit our Privacy Policy to learn more. By continuing to use the site, you agree to this use of cookies and data.
  • In Switzerland
  • List of Countries
  • For 7 days
  • Water Temperature
  • Satellite Maps
  • Weather Map
  • Weather Widgets
  • user-avatar
    Login

    Hourly Weather Kaprun

    Today, 26 April, Friday

    Time Temperature Precipitation Wind Pressure Humidity
    00:00 +1°C° 0 mm 4 mps 595 mmHg 86%
    01:00 +1°C° 0 mm 4 mps 594 mmHg 87%
    02:00 +1°C° 0 mm 4 mps 594 mmHg 87%
    03:00 +1°C° 0 mm 4 mps 594 mmHg 86%
    04:00 +1°C° 0 mm 4 mps 594 mmHg 86%
    05:00 +3°C° 0 mm 4 mps 594 mmHg 83%
    06:00 +2°C° 0 mm 5 mps 594 mmHg 81%
    07:00 +3°C° 0 mm 5 mps 594 mmHg 78%
    08:00 +5°C° 0 mm 5 mps 595 mmHg 73%
    09:00 +7°C° 0 mm 5 mps 595 mmHg 68%
    10:00 +8°C° 0 mm 5 mps 595 mmHg 62%
    11:00 +8°C° 0 mm 5 mps 596 mmHg 60%
    12:00 +9°C° 0 mm 5 mps 596 mmHg 57%
    13:00 +9°C° 0 mm 5 mps 596 mmHg 55%
    14:00 +7°C° 0.9 mm 4 mps 596 mmHg 65%
    15:00 +7°C° 0.9 mm 3 mps 595 mmHg 74%
    16:00 +5°C° 0.9 mm 2 mps 595 mmHg 84%
    17:00 +3°C° 3 mm 2 mps 594 mmHg 88%
    18:00 +1°C° 3 mm 2 mps 593 mmHg 92%
    19:00 -2°C° 3 mm 2 mps 593 mmHg 96%
    20:00 -3°C° 0.8 mm 2 mps 593 mmHg 96%
    21:00 -3°C° 0.8 mm 2 mps 593 mmHg 96%
    22:00 -2°C° 0.8 mm 1 mps 593 mmHg 96%
    23:00 -4°C° 0.1 mm 2 mps 593 mmHg 96%

    Tomorrow, 27 April, Saturday

    Time Temperature Precipitation Wind Pressure Humidity
    00:00 -4°C° 0.1 mm 2 mps 593 mmHg 95%
    01:00 -4°C° 0.1 mm 2 mps 594 mmHg 95%
    02:00 -4°C° 0.1 mm 2 mps 594 mmHg 96%
    03:00 -4°C° 0.1 mm 2 mps 594 mmHg 96%
    04:00 -5°C° 0.1 mm 2 mps 594 mmHg 96%
    05:00 -4°C° 0.3 mm 2 mps 594 mmHg 95%
    06:00 -4°C° 0.3 mm 2 mps 594 mmHg 94%
    07:00 -4°C° 0.3 mm 2 mps 594 mmHg 93%
    08:00 -3°C° 0.2 mm 2 mps 595 mmHg 90%
    09:00 -2°C° 0.2 mm 2 mps 595 mmHg 88%
    10:00 -2°C° 0.2 mm 2 mps 595 mmHg 86%
    11:00 -1°C° 0.1 mm 2 mps 595 mmHg 84%
    12:00 +1°C° 0.1 mm 2 mps 595 mmHg 81%
    13:00 +2°C° 0.1 mm 2 mps 595 mmHg 79%
    14:00 +2°C° 0.1 mm 2 mps 595 mmHg 78%
    15:00 +3°C° 0.1 mm 2 mps 595 mmHg 78%
    16:00 +3°C° 0.1 mm 2 mps 595 mmHg 77%
    17:00 +2°C° 0 mm 2 mps 595 mmHg 83%
    18:00 -1°C° 0 mm 2 mps 595 mmHg 88%
    19:00 -2°C° 0 mm 2 mps 594 mmHg 94%
    20:00 -2°C° 0.1 mm 2 mps 595 mmHg 94%
    21:00 -3°C° 0.1 mm 2 mps 595 mmHg 95%
    22:00 -1°C° 0.1 mm 1 mps 596 mmHg 96%
    23:00 -3°C° 0.6 mm 2 mps 596 mmHg 96%

    Day after tomorrow, 28 April, Sunday

    Time Temperature Precipitation Wind Pressure Humidity
    00:00 -3°C° 0.6 mm 2 mps 596 mmHg 97%
    01:00 -3°C° 0.6 mm 2 mps 596 mmHg 97%
    02:00 -4°C° 1.2 mm 2 mps 596 mmHg 97%
    03:00 -4°C° 1.2 mm 2 mps 595 mmHg 97%
    04:00 -5°C° 1.2 mm 2 mps 595 mmHg 97%
    05:00 -5°C° 0.7 mm 2 mps 595 mmHg 96%
    06:00 -5°C° 0.7 mm 2 mps 595 mmHg 95%
    07:00 -6°C° 0.7 mm 2 mps 594 mmHg 94%
    08:00 -5°C° 0.5 mm 2 mps 595 mmHg 93%
    09:00 -5°C° 0.5 mm 2 mps 595 mmHg 92%
    10:00 -4°C° 0.5 mm 2 mps 595 mmHg 91%
    11:00 -4°C° 0.7 mm 2 mps 595 mmHg 91%
    12:00 -4°C° 0.7 mm 2 mps 595 mmHg 91%
    13:00 -3°C° 0.7 mm 2 mps 595 mmHg 91%
    14:00 -4°C° 0.9 mm 2 mps 595 mmHg 91%
    15:00 -4°C° 0.9 mm 2 mps 594 mmHg 92%
    16:00 -4°C° 0.9 mm 2 mps 594 mmHg 92%
    17:00 -5°C° 0.6 mm 2 mps 594 mmHg 93%
    18:00 -5°C° 0.6 mm 2 mps 594 mmHg 94%
    19:00 -4°C° 0.6 mm 1 mps 594 mmHg 95%
    20:00 -4°C° 0.4 mm 1 mps 594 mmHg 95%
    21:00 -6°C° 0.4 mm 1 mps 594 mmHg 94%
    22:00 -6°C° 0.4 mm 1 mps 594 mmHg 94%
    23:00 -6°C° 0.7 mm 1 mps 594 mmHg 94%

    29 April, Monday

    Time Temperature Precipitation Wind Pressure Humidity
    00:00 -6°C° 0.7 mm 1 mps 594 mmHg 95%
    01:00 -6°C° 0.7 mm 1 mps 594 mmHg 95%
    02:00 -6°C° 0.9 mm 1 mps 594 mmHg 96%
    03:00 -6°C° 0.9 mm 1 mps 594 mmHg 96%
    04:00 -6°C° 0.9 mm 1 mps 593 mmHg 96%
    05:00 -6°C° 0.5 mm 1 mps 594 mmHg 96%
    06:00 -4°C° 0.5 mm 1 mps 594 mmHg 95%
    07:00 -6°C° 0.5 mm 2 mps 594 mmHg 94%
    08:00 -5°C° 0.5 mm 2 mps 594 mmHg 94%
    09:00 -4°C° 0.5 mm 2 mps 594 mmHg 94%
    10:00 -4°C° 0.5 mm 2 mps 595 mmHg 94%
    11:00 -3°C° 0.6 mm 2 mps 594 mmHg 94%
    12:00 -3°C° 0.6 mm 2 mps 594 mmHg 95%
    13:00 -4°C° 0.6 mm 3 mps 594 mmHg 95%
    14:00 -2°C° 0.3 mm 3 mps 594 mmHg 95%
    15:00 -2°C° 0.3 mm 3 mps 594 mmHg 96%
    16:00 -2°C° 0.3 mm 3 mps 594 mmHg 96%
    17:00 -4°C° 0.3 mm 3 mps 594 mmHg 96%
    18:00 -3°C° 0.3 mm 2 mps 594 mmHg 97%
    19:00 -4°C° 0.3 mm 2 mps 594 mmHg 97%
    20:00 -4°C° 0.1 mm 2 mps 594 mmHg 97%
    21:00 -4°C° 0.1 mm 2 mps 594 mmHg 97%
    22:00 -5°C° 0.1 mm 2 mps 594 mmHg 97%
    23:00 -5°C° 0.1 mm 2 mps 594 mmHg 97%

    30 April, Tuesday

    Time Temperature Precipitation Wind Pressure Humidity
    00:00 -5°C° 0.1 mm 2 mps 594 mmHg 97%
    01:00 -5°C° 0.1 mm 2 mps 594 mmHg 96%
    02:00 -5°C° 0.2 mm 2 mps 594 mmHg 96%
    03:00 -5°C° 0.2 mm 2 mps 594 mmHg 96%
    04:00 -5°C° 0.2 mm 2 mps 593 mmHg 96%
    05:00 -4°C° 0.1 mm 2 mps 593 mmHg 96%
    06:00 -4°C° 0.1 mm 2 mps 594 mmHg 95%
    07:00 -3°C° 0.1 mm 2 mps 594 mmHg 95%
    08:00 -3°C° 0.1 mm 2 mps 594 mmHg 95%
    09:00 -2°C° 0.1 mm 3 mps 594 mmHg 95%
    10:00 -1°C° 0.1 mm 3 mps 594 mmHg 95%
    11:00 -1°C° 0.2 mm 3 mps 594 mmHg 95%
    12:00 -1°C° 0.2 mm 3 mps 594 mmHg 95%
    13:00 0°C° 0.2 mm 3 mps 594 mmHg 95%
    14:00 0°C° 0.1 mm 3 mps 594 mmHg 95%
    15:00 -1°C° 0.1 mm 3 mps 593 mmHg 95%
    16:00 -1°C° 0.1 mm 3 mps 593 mmHg 95%
    17:00 -1°C° 0 mm 2 mps 593 mmHg 95%
    18:00 -2°C° 0 mm 2 mps 593 mmHg 96%
    19:00 -3°C° 0 mm 2 mps 593 mmHg 97%
    20:00 -1°C° 0 mm 1 mps 593 mmHg 97%
    21:00 -2°C° 0 mm 1 mps 593 mmHg 97%
    22:00 -3°C° 0 mm 1 mps 593 mmHg 96%
    23:00 -3°C° 0 mm 1 mps 592 mmHg 96%

    1 May, Wednesday

    Time Temperature Precipitation Wind Pressure Humidity
    00:00 -4°C° 0 mm 1 mps 592 mmHg 96%
    01:00 -4°C° 0 mm 1 mps 592 mmHg 95%
    02:00 -4°C° 0 mm 1 mps 592 mmHg 95%
    03:00 -6°C° 0 mm 1 mps 591 mmHg 94%
    04:00 -6°C° 0 mm 1 mps 591 mmHg 94%
    05:00 -3°C° 0 mm 1 mps 592 mmHg 93%
    06:00 -2°C° 0 mm 1 mps 592 mmHg 92%
    07:00 0°C° 0 mm 1 mps 593 mmHg 92%
    08:00 +1°C° 0 mm 1 mps 593 mmHg 91%
    09:00 +2°C° 0 mm 1 mps 593 mmHg 90%
    10:00 +2°C° 0 mm 2 mps 594 mmHg 89%
    11:00 +3°C° 0 mm 2 mps 594 mmHg 88%
    12:00 +3°C° 0 mm 2 mps 594 mmHg 86%
    13:00 +4°C° 0 mm 2 mps 593 mmHg 85%
    14:00 +4°C° 0.1 mm 2 mps 593 mmHg 85%
    15:00 +4°C° 0.1 mm 2 mps 593 mmHg 84%
    16:00 +4°C° 0.1 mm 2 mps 593 mmHg 84%
    17:00 +3°C° 0 mm 2 mps 592 mmHg 88%
    18:00 +2°C° 0 mm 1 mps 592 mmHg 92%
    19:00 0°C° 0 mm 1 mps 591 mmHg 95%
    20:00 0°C° 0 mm 1 mps 591 mmHg 95%
    21:00 -1°C° 0 mm 1 mps 591 mmHg 96%
    22:00 -1°C° 0 mm 1 mps 591 mmHg 96%
    23:00 -2°C° 0 mm 1 mps 591 mmHg 94%
    Show more